Location: Grand Rapids
(42.9630°N, 85.6680°W)
Time: 02:10:57
(UTC-04:00)

S-56A Canister/Altair - Pass Details

Date: 08 June 2024
Orbit: 637 x 2489 km, 38.9° (Epoch: 21 June)

Event Time Altitude Azimuth Distance (km) Brightness Sun altitude
Rises 22:53:07 0° 164° (SSE) 5,146 - -13.5°
Maximum altitude 23:03:07 10° 122° (ESE) 4,760 - -14.6°
Drops below altitude 10° 23:03:10 10° 121° (ESE) 4,763 - -14.6°
Exits shadow 23:05:22 10° 112° (ESE) 4,909 11.1 -14.9°
Sets 23:14:34 0° 82° (E) 6,132 11.9 -15.9°
